Waarnemingen

Advertentie
Mijn weer
Jarnasklubb, Zweden (2284): temperatuur & dauwpunt: 19.05.2020 12:00:00 - 25.05.2020 12:00:00 (CEST)Jarnasklubb, Zweden (2284): windsnelheid & windstoten: 19.05.2020 12:00:00 - 25.05.2020 12:00:00 (CEST)Jarnasklubb, Zweden (2284): windrichting: 19.05.2020 12:00:00 - 25.05.2020 12:00:00 (CEST)Jarnasklubb, Zweden (2284): luchtdruk: 19.05.2020 12:00:00 - 25.05.2020 12:00:00 (CEST)Jarnasklubb, Zweden (2284): zicht: 19.05.2020 12:00:00 - 25.05.2020 12:00:00 (CEST)Jarnasklubb, Zweden (2284): neerslag: 19.05.2020 12:00:00 - 25.05.2020 12:00:00 (CEST)
Datum & Tijd tt [°C] td [°C] ff [km/u] ff [kn] fx [km/u] fx [kn] dd ppp [hPa] vv [km] rr [mm]
25.05.2020 12:00:00 11,6 7,6 14 8 18 10 Z 1026,3 35 0,0
25.05.2020 11:00:00 11,5 8,0 11 6 13 7 ZZW 1025,9 38 0,0
25.05.2020 10:00:00 11,4 7,7 8 5 16 9 ZZW 1025,3 41 0,0
25.05.2020 09:00:00 12,6 6,8 10 5 15 8 W 1024,6 50 0,0
25.05.2020 08:00:00 11,5 6,8 4 2 13 7 NW 1024,2 48 0,0
25.05.2020 07:00:00 9,4 7,2 8 4 13 7 NW 1023,9 50 0,0
25.05.2020 06:00:00 8,5 7,1 3 2 10 6 NNW 1023,5 48 0,0
25.05.2020 05:00:00 8,0 6,8 4 2 7 4 WNW 1022,8 47 0,0
25.05.2020 04:00:00 7,8 6,7 0 0 4 2 N 1022,1 44 0,0
25.05.2020 03:00:00 7,5 7,2 0 0 5 3 N 1021,7 19 0,0
25.05.2020 02:00:00 7,6 7,3 0 0 5 3 N 1021,2 25 0,0
25.05.2020 01:00:00 7,5 7,2 3 1 4 2 ZZO 1020,6 23 0,0
25.05.2020 00:00:00 7,3 7,0 0 0 4 2 N 1020,0 28 0,0
24.05.2020 23:00:00 7,3 7,0 0 0 4 2 N 1019,6 27 0,0
24.05.2020 22:00:00 7,2 7,1 3 1 7 4 ZZW 1019,0 20 0,0
24.05.2020 21:00:00 7,2 7,1 5 3 8 5 ZO 1018,4 19 0,0
24.05.2020 20:00:00 7,0 6,9 4 2 16 9 ZO 1018,1 36 0,0
24.05.2020 19:00:00 7,2 7,1 8 4 16 9 OZO 1017,5 3,6 0,0
24.05.2020 18:00:00 8,2 7,3 2 1 7 4 Z 1017,0 19 0,0
24.05.2020 17:00:00 7,8 7,2 6 4 8 5 OZO 1016,7 20 0,0
24.05.2020 16:00:00 7,9 7,3 5 3 10 5 ZO 1016,3 17 0,0
24.05.2020 15:00:00 8,0 7,1 6 3 17 9 ZZW 1016,1 17 0,0
24.05.2020 14:00:00 8,2 7,9 16 9 28 15 Z 1015,7 - 0,0
24.05.2020 13:00:00 7,5 7,4 19 10 27 15 Z 1015,5 11 0,0
24.05.2020 12:00:00 7,3 7,2 23 12 36 19 Z 1014,6 7 0,0
24.05.2020 11:00:00 7,3 7,2 29 16 38 20 ZZO 1014,0 3,7 0,2
24.05.2020 10:00:00 7,4 5,9 23 12 35 19 OZO 1013,9 24 0,1
24.05.2020 09:00:00 7,3 5,3 25 13 43 23 O 1013,8 42 0,3
24.05.2020 08:00:00 7,2 5,2 25 14 41 22 ONO 1013,7 31 0,2
24.05.2020 07:00:00 7,2 5,7 23 12 31 17 O 1013,9 37 0,2
24.05.2020 06:00:00 7,2 6,0 20 11 26 14 O 1014,2 18 0,1
24.05.2020 05:00:00 7,0 6,4 18 10 23 12 O 1014,6 12 0,3
24.05.2020 04:00:00 7,1 6,4 18 10 24 13 ZO 1015,1 17 0,5
24.05.2020 03:00:00 7,0 5,9 17 9 25 13 Z 1015,5 15 0,2
24.05.2020 02:00:00 6,9 5,7 22 12 28 15 ZZO 1015,9 23 0,1
24.05.2020 01:00:00 6,7 5,3 17 9 29 16 ZZO 1016,4 15 0,2
24.05.2020 00:00:00 7,0 5,1 21 11 27 14 Z 1016,7 12 0,0
23.05.2020 23:00:00 7,5 4,9 16 9 22 12 Z 1016,6 33 0,0
23.05.2020 22:00:00 7,4 5,0 8 5 16 9 Z 1016,3 40 0,0
23.05.2020 21:00:00 7,7 5,2 13 7 19 10 ZZW 1016,6 37 0,0
23.05.2020 20:00:00 7,9 5,2 12 7 17 9 Z 1016,4 39 0,0
23.05.2020 19:00:00 8,0 5,1 13 7 21 11 Z 1016,5 36 0,0
23.05.2020 18:00:00 8,3 4,9 14 8 22 12 ZZW 1016,6 36 0,0
23.05.2020 17:00:00 9,1 4,9 16 9 24 13 ZZW 1017,1 41 0,0
23.05.2020 16:00:00 9,0 5,2 21 11 25 13 Z 1017,4 35 0,0
23.05.2020 15:00:00 9,3 5,3 18 10 22 12 Z 1017,6 37 0,0
23.05.2020 14:00:00 9,5 5,3 16 8 28 15 Z 1017,7 31 0,0
23.05.2020 13:00:00 10,6 5,6 23 12 32 17 Z 1017,8 38 0,0
23.05.2020 12:00:00 10,0 5,2 29 16 34 19 Z 1017,9 41 0,0
23.05.2020 11:00:00 10,1 4,7 28 15 34 18 Z 1017,9 37 0,0
23.05.2020 10:00:00 9,4 4,6 24 13 33 18 Z 1017,8 34 0,0
23.05.2020 09:00:00 8,7 4,5 26 14 33 18 Z 1017,9 39 0,0
23.05.2020 08:00:00 9,1 4,7 25 13 34 18 Z 1018,0 40 0,0
23.05.2020 07:00:00 8,6 4,8 26 14 31 17 Z 1018,2 39 0,0
23.05.2020 06:00:00 8,4 4,4 24 13 32 17 Z 1018,5 49 0,0
23.05.2020 05:00:00 8,2 3,8 26 14 35 19 Z 1018,9 50 0,0
23.05.2020 04:00:00 8,2 3,5 28 15 32 18 ZZO 1019,2 50 0,0
23.05.2020 03:00:00 7,8 4,7 21 11 26 14 ZZO 1019,8 50 0,0
23.05.2020 02:00:00 7,7 5,0 19 10 22 12 ZZO 1020,2 50 0,0
23.05.2020 01:00:00 7,6 5,2 14 8 16 9 Z 1020,7 50 0,0
23.05.2020 00:00:00 7,6 5,6 13 7 16 9 Z 1021,3 50 0,0
22.05.2020 23:00:00 7,6 5,4 13 7 16 8 ZZO 1021,3 50 0,0
22.05.2020 22:00:00 7,5 4,6 8 4 11 6 Z 1021,5 50 0,0
22.05.2020 21:00:00 7,6 4,9 7 4 10 5 ZZO 1021,7 50 0,0
22.05.2020 20:00:00 8,2 4,2 8 4 11 6 Z 1022,2 50 0,0
22.05.2020 19:00:00 9,2 4,4 10 5 13 7 Z 1022,6 49 0,0
22.05.2020 18:00:00 8,8 3,6 9 5 11 6 Z 1023,2 47 0,0
22.05.2020 17:00:00 10,0 3,3 9 5 11 6 Z 1023,9 47 0,0
22.05.2020 16:00:00 9,8 3,1 9 5 11 6 Z 1024,5 44 0,0
22.05.2020 15:00:00 9,9 2,5 9 5 11 6 ZZO 1025,1 40 0,0
22.05.2020 14:00:00 9,6 1,7 9 5 14 8 ZZO 1025,7 44 0,0
22.05.2020 13:00:00 9,4 0,8 12 7 16 8 OZO 1026,0 38 0,0
22.05.2020 12:00:00 9,3 1,0 10 6 14 7 ZO 1026,4 45 0,0
22.05.2020 11:00:00 9,2 2,3 11 6 13 7 OZO 1026,6 48 0,0
22.05.2020 10:00:00 8,8 3,0 10 6 13 7 O 1026,7 47 0,0
22.05.2020 09:00:00 8,8 -0,5 8 5 13 7 O 1026,9 50 0,0
22.05.2020 08:00:00 8,4 -2,3 5 3 9 5 O 1027,0 48 0,0
22.05.2020 07:00:00 8,4 0,4 0 0 6 3 N 1027,0 50 0,0
22.05.2020 06:00:00 5,2 1,5 4 2 6 3 N 1027,2 50 0,0
22.05.2020 05:00:00 3,0 1,0 4 2 9 5 NNO 1027,2 42 0,0
22.05.2020 04:00:00 1,2 0,2 6 4 10 6 NNO 1027,0 24 0,0
22.05.2020 03:00:00 1,1 0,7 8 4 10 5 NNO 1026,8 14 0,0
22.05.2020 02:00:00 1,2 0,2 7 4 9 5 NNW 1026,7 19 0,0
22.05.2020 01:00:00 1,6 0,6 6 3 8 5 N 1026,5 24 0,0
22.05.2020 00:00:00 2,0 0,5 6 4 8 5 N 1026,4 34 0,0
21.05.2020 23:00:00 2,9 1,1 6 3 6 3 N 1026,4 41 0,0
21.05.2020 22:00:00 4,9 2,4 4 2 5 3 NO 1026,3 49 0,0
21.05.2020 21:00:00 7,5 2,4 5 3 7 4 O 1026,1 50 0,0
21.05.2020 20:00:00 7,9 3,2 5 3 10 5 ZO 1026,0 50 0,0
21.05.2020 19:00:00 8,4 3,2 9 5 10 5 OZO 1025,9 50 0,0
21.05.2020 18:00:00 8,7 2,9 8 5 11 6 OZO 1025,9 46 0,0
21.05.2020 17:00:00 8,9 3,1 9 5 12 7 ZO 1026,0 37 0,0
21.05.2020 16:00:00 10,0 2,8 9 5 11 6 ZO 1025,8 38 0,0
21.05.2020 15:00:00 9,0 3,2 6 4 11 6 Z 1025,9 44 0,0
21.05.2020 14:00:00 8,8 3,0 7 4 11 6 Z 1026,0 40 0,0
21.05.2020 13:00:00 9,3 3,3 9 5 16 9 ZZO 1026,1 45 0,0
21.05.2020 12:00:00 8,5 3,1 14 8 17 9 ZO 1026,1 48 0,0
21.05.2020 11:00:00 8,9 3,5 10 5 11 6 ZO 1026,0 41 0,0
21.05.2020 10:00:00 8,2 3,6 8 4 14 8 OZO 1025,8 50 0,0
21.05.2020 09:00:00 7,0 2,9 8 5 10 5 OZO 1025,6 45 0,0
21.05.2020 08:00:00 7,6 2,5 4 2 7 4 Z 1025,3 48 0,0
21.05.2020 07:00:00 6,3 2,2 4 2 8 5 N 1025,2 47 0,0
21.05.2020 06:00:00 4,0 1,7 4 2 13 7 N 1025,1 50 0,0
21.05.2020 05:00:00 1,6 0,6 11 6 13 7 NNW 1025,2 37 0,0
21.05.2020 04:00:00 -0,2 -0,5 8 4 9 5 NNW 1025,0 10 0,0
21.05.2020 03:00:00 0,3 0,0 8 5 10 5 N 1024,9 11 0,0
21.05.2020 02:00:00 0,3 -0,1 8 4 9 5 NNW 1024,8 12 0,0
21.05.2020 01:00:00 2,0 1,4 3 2 5 3 ZZW 1024,6 16 0,0
21.05.2020 00:00:00 1,4 0,7 3 1 6 3 Z 1024,4 19 0,0
20.05.2020 23:00:00 2,7 1,4 0 0 7 4 N 1024,3 31 0,0
20.05.2020 22:00:00 5,6 2,4 6 4 8 4 Z 1024,1 50 0,0
20.05.2020 21:00:00 6,0 2,1 5 3 10 5 ZZO 1023,6 50 0,0
20.05.2020 20:00:00 6,6 1,3 9 5 14 8 ZO 1023,6 50 0,0
20.05.2020 19:00:00 7,2 0,8 9 5 16 9 ZZO 1023,5 50 0,0
20.05.2020 18:00:00 7,2 -0,8 13 7 16 9 ZO 1023,5 50 0,0
20.05.2020 17:00:00 7,3 0,9 16 8 20 11 ZO 1023,2 50 0,0
20.05.2020 16:00:00 8,0 1,4 16 9 22 12 ZZO 1022,9 45 0,0
20.05.2020 15:00:00 7,2 2,5 20 11 32 17 ZO 1022,8 45 0,0
20.05.2020 14:00:00 8,7 3,9 23 12 26 14 ZO 1022,4 43 0,0
20.05.2020 13:00:00 9,2 1,8 13 7 15 8 Z 1021,9 50 0,0
20.05.2020 12:00:00 9,2 -2,7 11 6 17 9 ZO 1021,8 50 0,0
20.05.2020 11:00:00 10,0 -5,2 6 3 23 13 N 1021,6 50 0,0
20.05.2020 10:00:00 9,8 -3,9 8 4 22 12 NNO 1021,4 50 0,0
20.05.2020 09:00:00 8,7 -1,4 11 6 23 12 N 1021,2 50 0,0
20.05.2020 08:00:00 7,2 0,4 9 5 18 10 N 1020,9 50 0,0
20.05.2020 07:00:00 5,4 0,8 10 5 18 10 NNW 1020,5 50 0,0
20.05.2020 06:00:00 3,7 0,9 9 5 20 11 N 1020,0 50 0,0
20.05.2020 05:00:00 1,6 -0,2 13 7 22 12 NNW 1019,6 50 0,0
20.05.2020 04:00:00 1,2 -0,3 11 6 19 10 NNW 1019,3 50 0,0
20.05.2020 03:00:00 1,2 0,0 9 5 17 9 NNW 1018,8 50 0,0
20.05.2020 02:00:00 1,4 0,2 9 5 17 9 NNW 1018,3 50 0,0
20.05.2020 01:00:00 2,0 0,7 9 5 18 10 N 1018,0 50 0,0
20.05.2020 00:00:00 2,4 1,2 9 5 18 10 NNW 1017,4 50 0,0
19.05.2020 23:00:00 2,9 2,0 8 5 15 8 NNW 1016,9 50 0,0
19.05.2020 22:00:00 3,7 2,7 8 4 17 9 NW 1016,5 50 0,0
19.05.2020 21:00:00 4,2 3,0 6 4 12 6 NW 1015,9 50 0,0
19.05.2020 20:00:00 4,8 3,3 6 3 13 7 N 1015,5 50 0,0
19.05.2020 19:00:00 4,3 3,3 8 5 28 15 NNW 1015,0 48 1,2
19.05.2020 18:00:00 3,7 2,4 16 9 37 20 NO 1014,4 9 1,3
19.05.2020 17:00:00 7,6 2,3 11 6 20 11 N 1013,2 50 0,0
19.05.2020 16:00:00 5,3 3,1 8 4 26 14 NW 1012,6 50 0,2
19.05.2020 15:00:00 3,9 2,6 13 7 31 17 NNW 1012,6 11 2,6
19.05.2020 14:00:00 5,8 3,6 8 4 15 8 NW 1011,9 47 0,1
19.05.2020 13:00:00 3,5 2,2 9 5 19 11 NNW 1011,7 41 0,2
19.05.2020 12:00:00 4,4 1,9 11 6 14 8 O 1010,8 48 2,1

tt = temperatuur
td = dauwpunt
ff = windsnelheid
fx = windstoten
dd = windrichting
ppp = luchtdruk
vv = zicht
rr = neerslag

Weerstations in de omgeving